When you browse on this site, cookies collect data to enhance your experience and personalize the content and advertising you see.
Visit our Privacy Policy to learn more. By continuing to use the site, you agree to this use of cookies and data.
  • In Sweden
  • List of Countries
  • For 7 days
  • Water Temperature
  • Weather Map
  • Weather Widgets
  • user-avatar
    Login

    Hourly Weather Sekowo

    Today, 17 October, Thursday

    Time Temperature Precipitation Wind Pressure Humidity
    00:00 +11°C° 0 mm 6 mps 748 mmHg 74%
    01:00 +11°C° 0 mm 6 mps 749 mmHg 70%
    02:00 +10°C° 0 mm 5 mps 749 mmHg 73%
    03:00 +10°C° 0 mm 5 mps 749 mmHg 76%
    04:00 +9°C° 0 mm 5 mps 749 mmHg 78%
    05:00 +10°C° 0 mm 4 mps 749 mmHg 79%
    06:00 +10°C° 0 mm 4 mps 749 mmHg 80%
    07:00 +9°C° 0 mm 3 mps 750 mmHg 79%
    08:00 +11°C° 0 mm 4 mps 750 mmHg 74%
    09:00 +13°C° 0 mm 4 mps 750 mmHg 68%
    10:00 +14°C° 0 mm 4 mps 750 mmHg 63%
    11:00 +15°C° 0 mm 4 mps 750 mmHg 60%
    12:00 +17°C° 0 mm 4 mps 750 mmHg 57%
    13:00 +18°C° 0 mm 4 mps 750 mmHg 54%
    14:00 +18°C° 0 mm 4 mps 750 mmHg 56%
    15:00 +17°C° 0 mm 3 mps 750 mmHg 58%
    16:00 +16°C° 0 mm 3 mps 750 mmHg 61%
    17:00 +16°C° 0 mm 3 mps 750 mmHg 62%
    18:00 +15°C° 0 mm 2 mps 750 mmHg 63%
    19:00 +14°C° 0 mm 2 mps 750 mmHg 64%
    20:00 +14°C° 0 mm 2 mps 750 mmHg 67%
    21:00 +14°C° 0 mm 2 mps 750 mmHg 70%
    22:00 +13°C° 0 mm 2 mps 750 mmHg 73%
    23:00 +13°C° 0 mm 2 mps 750 mmHg 76%

    Tomorrow, 18 October, Friday

    Time Temperature Precipitation Wind Pressure Humidity
    00:00 +12°C° 0 mm 2 mps 750 mmHg 79%
    01:00 +12°C° 0 mm 2 mps 750 mmHg 81%
    02:00 +12°C° 0 mm 2 mps 750 mmHg 82%
    03:00 +10°C° 0 mm 2 mps 750 mmHg 83%
    04:00 +10°C° 0 mm 2 mps 750 mmHg 83%
    05:00 +10°C° 0 mm 2 mps 750 mmHg 83%
    06:00 +10°C° 0 mm 2 mps 750 mmHg 83%
    07:00 +12°C° 0 mm 2 mps 750 mmHg 83%
    08:00 +13°C° 0 mm 2 mps 750 mmHg 77%
    09:00 +14°C° 0 mm 2 mps 750 mmHg 72%
    10:00 +16°C° 0 mm 3 mps 750 mmHg 67%
    11:00 +17°C° 0 mm 3 mps 749 mmHg 65%
    12:00 +17°C° 0 mm 3 mps 749 mmHg 62%
    13:00 +18°C° 0 mm 3 mps 749 mmHg 60%
    14:00 +18°C° 0 mm 2 mps 749 mmHg 63%
    15:00 +17°C° 0 mm 2 mps 748 mmHg 66%
    16:00 +18°C° 0 mm 1 mps 748 mmHg 69%
    17:00 +16°C° 0 mm 1 mps 748 mmHg 70%
    18:00 +16°C° 0 mm 2 mps 748 mmHg 71%
    19:00 +15°C° 0 mm 2 mps 748 mmHg 71%
    20:00 +15°C° 0 mm 2 mps 748 mmHg 73%
    21:00 +15°C° 0 mm 2 mps 748 mmHg 74%
    22:00 +14°C° 0 mm 3 mps 748 mmHg 75%
    23:00 +14°C° 0 mm 2 mps 748 mmHg 76%

    Day after tomorrow, 19 October, Saturday

    Time Temperature Precipitation Wind Pressure Humidity
    00:00 +14°C° 0 mm 2 mps 748 mmHg 76%
    01:00 +14°C° 0 mm 2 mps 748 mmHg 77%
    02:00 +13°C° 0 mm 2 mps 748 mmHg 77%
    03:00 +13°C° 0 mm 2 mps 748 mmHg 78%
    04:00 +13°C° 0 mm 2 mps 748 mmHg 78%
    05:00 +13°C° 0 mm 2 mps 748 mmHg 81%
    06:00 +12°C° 0 mm 2 mps 748 mmHg 84%
    07:00 +12°C° 0 mm 2 mps 749 mmHg 87%
    08:00 +13°C° 0 mm 2 mps 749 mmHg 81%
    09:00 +15°C° 0 mm 2 mps 749 mmHg 76%
    10:00 +16°C° 0 mm 1 mps 749 mmHg 70%
    11:00 +18°C° 0 mm 1 mps 749 mmHg 68%
    12:00 +18°C° 0 mm 1 mps 749 mmHg 65%
    13:00 +19°C° 0 mm 1 mps 749 mmHg 63%
    14:00 +18°C° 0 mm 1 mps 749 mmHg 66%
    15:00 +18°C° 0 mm 1 mps 748 mmHg 69%
    16:00 +15°C° 0 mm 0 mps 748 mmHg 73%
    17:00 +16°C° 0 mm 1 mps 748 mmHg 74%
    18:00 +15°C° 0 mm 1 mps 748 mmHg 76%
    19:00 +15°C° 0 mm 2 mps 748 mmHg 77%
    20:00 +14°C° 0 mm 2 mps 748 mmHg 78%
    21:00 +14°C° 0 mm 2 mps 748 mmHg 79%
    22:00 +14°C° 0 mm 2 mps 748 mmHg 80%
    23:00 +13°C° 0 mm 2 mps 748 mmHg 81%

    20 October, Sunday

    Time Temperature Precipitation Wind Pressure Humidity
    00:00 +12°C° 0 mm 3 mps 748 mmHg 82%
    01:00 +12°C° 0 mm 3 mps 747 mmHg 83%
    02:00 +12°C° 0 mm 3 mps 748 mmHg 84%
    03:00 +12°C° 0 mm 3 mps 748 mmHg 85%
    04:00 +12°C° 0 mm 3 mps 748 mmHg 86%
    05:00 +12°C° 0 mm 2 mps 748 mmHg 86%
    06:00 +12°C° 0 mm 2 mps 748 mmHg 87%
    07:00 +12°C° 0 mm 2 mps 748 mmHg 87%
    08:00 +14°C° 0 mm 2 mps 748 mmHg 80%
    09:00 +15°C° 0 mm 2 mps 749 mmHg 74%
    10:00 +17°C° 0 mm 2 mps 749 mmHg 68%
    11:00 +18°C° 0 mm 2 mps 749 mmHg 64%
    12:00 +19°C° 0 mm 2 mps 749 mmHg 60%
    13:00 +20°C° 0 mm 2 mps 749 mmHg 56%
    14:00 +20°C° 0 mm 1 mps 749 mmHg 59%
    15:00 +19°C° 0 mm 1 mps 749 mmHg 62%
    16:00 +17°C° 0 mm 0 mps 749 mmHg 65%
    17:00 +18°C° 0 mm 1 mps 749 mmHg 69%
    18:00 +16°C° 0 mm 1 mps 749 mmHg 72%
    19:00 +15°C° 0 mm 2 mps 749 mmHg 75%
    20:00 +15°C° 0 mm 2 mps 749 mmHg 77%
    21:00 +14°C° 0 mm 2 mps 749 mmHg 78%
    22:00 +14°C° 0 mm 2 mps 748 mmHg 80%
    23:00 +14°C° 0 mm 2 mps 748 mmHg 80%

    21 October, Monday

    Time Temperature Precipitation Wind Pressure Humidity
    00:00 +14°C° 0 mm 2 mps 748 mmHg 80%
    01:00 +13°C° 0 mm 3 mps 748 mmHg 80%
    02:00 +14°C° 0 mm 2 mps 748 mmHg 79%
    03:00 +14°C° 0 mm 2 mps 748 mmHg 79%
    04:00 +14°C° 0 mm 2 mps 747 mmHg 79%
    05:00 +14°C° 0 mm 2 mps 747 mmHg 80%
    06:00 +14°C° 0 mm 2 mps 747 mmHg 82%
    07:00 +14°C° 0 mm 2 mps 747 mmHg 83%
    08:00 +15°C° 0 mm 2 mps 747 mmHg 78%
    09:00 +17°C° 0 mm 2 mps 748 mmHg 72%
    10:00 +18°C° 0 mm 3 mps 748 mmHg 66%
    11:00 +19°C° 0 mm 3 mps 748 mmHg 64%
    12:00 +19°C° 0 mm 3 mps 748 mmHg 62%
    13:00 +20°C° 0 mm 3 mps 748 mmHg 61%
    14:00 +19°C° 0 mm 3 mps 748 mmHg 65%
    15:00 +18°C° 0 mm 3 mps 748 mmHg 70%
    16:00 +18°C° 0 mm 2 mps 748 mmHg 74%
    17:00 +17°C° 0 mm 3 mps 749 mmHg 78%
    18:00 +16°C° 0 mm 3 mps 749 mmHg 82%
    19:00 +14°C° 0 mm 3 mps 750 mmHg 86%
    20:00 +14°C° 0 mm 4 mps 750 mmHg 87%
    21:00 +13°C° 0 mm 4 mps 750 mmHg 89%
    22:00 +13°C° 0 mm 4 mps 750 mmHg 91%
    23:00 +13°C° 0 mm 4 mps 751 mmHg 91%

    22 October, Tuesday

    Time Temperature Precipitation Wind Pressure Humidity
    00:00 +12°C° 0 mm 4 mps 751 mmHg 91%
    01:00 +12°C° 0 mm 4 mps 752 mmHg 92%
    02:00 +11°C° 0 mm 4 mps 752 mmHg 91%
    03:00 +11°C° 0 mm 4 mps 753 mmHg 91%
    04:00 +11°C° 0 mm 4 mps 753 mmHg 91%
    05:00 +10°C° 0 mm 4 mps 754 mmHg 91%
    06:00 +10°C° 0 mm 3 mps 754 mmHg 90%
    07:00 +10°C° 0 mm 3 mps 755 mmHg 90%
    08:00 +11°C° 0 mm 3 mps 755 mmHg 84%
    09:00 +12°C° 0 mm 4 mps 756 mmHg 79%
    10:00 +13°C° 0 mm 4 mps 756 mmHg 73%
    11:00 +14°C° 0 mm 4 mps 756 mmHg 69%
    12:00 +14°C° 0 mm 4 mps 757 mmHg 64%
    13:00 +15°C° 0 mm 4 mps 757 mmHg 59%
    14:00 +14°C° 0 mm 3 mps 757 mmHg 61%
    15:00 +14°C° 0 mm 2 mps 757 mmHg 63%
    16:00 +14°C° 0 mm 2 mps 756 mmHg 66%
    17:00 +13°C° 0 mm 2 mps 757 mmHg 69%
    18:00 +12°C° 0 mm 1 mps 757 mmHg 72%
    19:00 +11°C° 0 mm 1 mps 757 mmHg 76%
    20:00 +11°C° 0 mm 1 mps 757 mmHg 78%
    21:00 +10°C° 0 mm 1 mps 758 mmHg 80%
    22:00 +10°C° 0 mm 1 mps 758 mmHg 82%
    23:00 +9°C° 0 mm 1 mps 758 mmHg 84%
    Show more